Time,TemperatureF,DewpointF,PressureIn,WindDirection,WindDirectionDegrees,WindSpeedMPH,WindSpeedGustMPH,Humidity,HourlyPrecipIn,Conditions,Clouds,dailyrainin,SoftwareType,DateUTC
2013-10-12 00:01:00,60.6,52.7,29.57,East,90,6.5,8.7,75,0.00,,,0.00,WUHU21623XXSP,2013-10-12 05:01:00,
2013-10-12 00:06:00,60.6,52.7,29.57,SSE,157,4.9,8.7,75,0.00,,,0.00,WUHU21623XXSP,2013-10-12 05:06:00,
2013-10-12 00:11:00,60.6,52.7,29.56,SE,135,7.4,11.0,75,0.00,,,0.00,WUHU21623XXSP,2013-10-12 05:11:00,
2013-10-12 00:16:00,61.3,53.0,29.56,SSE,157,5.1,11.0,74,0.00,,,0.00,WUHU21623XXSP,2013-10-12 05:16:00,
2013-10-12 00:21:00,61.2,52.8,29.56,SSE,157,4.5,8.5,74,0.00,,,0.00,WUHU21623XXSP,2013-10-12 05:21:00,
2013-10-12 00:26:00,61.5,52.8,29.55,ESE,112,4.5,9.6,73,0.00,,,0.00,WUHU21623XXSP,2013-10-12 05:26:00,
2013-10-12 00:31:00,61.5,53.2,29.55,SSW,202,3.8,9.6,74,0.00,,,0.00,WUHU21623XXSP,2013-10-12 05:31:00,
2013-10-12 00:36:00,61.3,53.0,29.55,ESE,112,2.0,7.8,74,0.00,,,0.00,WUHU21623XXSP,2013-10-12 05:36:00,
2013-10-12 00:41:00,61.7,53.0,29.55,SE,135,5.1,12.5,73,0.00,,,0.00,WUHU21623XXSP,2013-10-12 05:41:00,
2013-10-12 00:46:00,61.7,53.0,29.55,ENE,67,0.0,13.2,73,0.00,,,0.00,WUHU21623XXSP,2013-10-12 05:46:00,
2013-10-12 00:51:00,62.1,52.9,29.54,ESE,112,3.6,13.2,72,0.00,,,0.00,WUHU21623XXSP,2013-10-12 05:51:00,
2013-10-12 00:56:00,62.2,53.1,29.55,SE,135,4.7,12.3,72,0.00,,,0.00,WUHU21623XXSP,2013-10-12 05:56:00,
2013-10-12 01:01:00,62.2,53.1,29.54,SE,135,4.5,12.5,72,0.00,,,0.00,WUHU21623XXSP,2013-10-12 06:01:00,
2013-10-12 01:10:00,62.2,53.1,29.54,SE,135,7.4,7.4,72,0.00,,,0.00,WUHU21623XXSP,2013-10-12 06:10:00,
2013-10-12 01:15:00,62.4,52.9,29.54,SE,135,2.0,12.8,71,0.00,,,0.00,WUHU21623XXSP,2013-10-12 06:15:00,
2013-10-12 01:20:00,62.2,52.7,29.54,East,90,4.7,12.8,71,0.00,,,0.00,WUHU21623XXSP,2013-10-12 06:20:00,
2013-10-12 01:25:00,61.9,53.1,29.56,South,180,6.5,12.8,73,0.00,,,0.00,WUHU21623XXSP,2013-10-12 06:25:00,
2013-10-12 01:30:00,60.4,54.0,29.57,WSW,247,0.9,12.8,79,0.00,,,0.00,WUHU21623XXSP,2013-10-12 06:30:00,
2013-10-12 01:35:00,58.8,53.3,29.56,SSE,157,0.0,7.2,82,0.00,,,0.00,WUHU21623XXSP,2013-10-12 06:35:00,
2013-10-12 01:40:00,58.6,53.8,29.56,SE,135,0.0,6.7,84,0.00,,,0.00,WUHU21623XXSP,2013-10-12 06:40:00,
2013-10-12 01:45:00,58.1,53.6,29.56,SSE,157,0.0,3.1,85,0.00,,,0.00,WUHU21623XXSP,2013-10-12 06:45:00,
2013-10-12 01:50:00,57.9,53.7,29.55,South,180,0.0,0.7,86,0.00,,,0.00,WUHU21623XXSP,2013-10-12 06:50:00,
2013-10-12 01:55:00,57.6,53.4,29.55,SSE,157,0.0,0.0,86,0.00,,,0.00,WUHU21623XXSP,2013-10-12 06:55:00,
2013-10-12 02:00:00,57.6,53.7,29.55,NNE,22,0.0,0.0,87,0.00,,,0.00,WUHU21623XXSP,2013-10-12 07:00:00,
2013-10-12 02:05:00,57.6,53.4,29.55,SE,135,0.0,0.0,86,0.00,,,0.00,WUHU21623XXSP,2013-10-12 07:05:00,
2013-10-12 02:10:00,57.7,53.6,29.55,ESE,112,0.0,0.0,86,0.00,,,0.00,WUHU21623XXSP,2013-10-12 07:10:00,
2013-10-12 02:15:00,57.6,53.4,29.54,ESE,112,0.0,0.0,86,0.00,,,0.00,WUHU21623XXSP,2013-10-12 07:15:00,
2013-10-12 02:20:00,57.6,53.4,29.55,SE,135,0.0,1.1,86,0.00,,,0.00,WUHU21623XXSP,2013-10-12 07:20:00,
2013-10-12 02:25:00,57.6,53.4,29.54,SE,135,2.5,6.5,86,0.00,,,0.00,WUHU21623XXSP,2013-10-12 07:25:00,
2013-10-12 02:30:00,57.4,52.9,29.54,SSE,157,2.7,6.5,85,0.00,,,0.00,WUHU21623XXSP,2013-10-12 07:30:00,
2013-10-12 02:35:00,57.4,52.9,29.54,SSE,157,3.4,6.7,85,0.00,,,0.00,WUHU21623XXSP,2013-10-12 07:35:00,
2013-10-12 02:40:00,57.7,52.9,29.53,SSE,157,0.9,8.3,84,0.00,,,0.00,WUHU21623XXSP,2013-10-12 07:40:00,
2013-10-12 02:45:00,58.1,53.0,29.53,South,180,0.0,8.3,83,0.00,,,0.00,WUHU21623XXSP,2013-10-12 07:45:00,
2013-10-12 02:50:00,58.1,53.0,29.53,SSE,157,2.5,6.7,83,0.00,,,0.00,WUHU21623XXSP,2013-10-12 07:50:00,
2013-10-12 02:55:00,58.1,53.0,29.53,East,90,0.0,6.7,83,0.00,,,0.00,WUHU21623XXSP,2013-10-12 07:55:00,
2013-10-12 03:00:00,57.7,52.6,29.53,SE,135,2.7,5.6,83,0.00,,,0.00,WUHU21623XXSP,2013-10-12 08:00:00,
2013-10-12 03:05:00,57.7,52.6,29.53,SE,135,0.0,7.2,83,0.00,,,0.00,WUHU21623XXSP,2013-10-12 08:05:00,
2013-10-12 03:10:00,57.6,52.7,29.53,SSE,157,0.9,7.2,84,0.00,,,0.00,WUHU21623XXSP,2013-10-12 08:10:00,
2013-10-12 03:15:00,57.7,52.6,29.53,SE,135,6.5,8.3,83,0.00,,,0.00,WUHU21623XXSP,2013-10-12 08:15:00,
2013-10-12 03:20:00,58.3,53.1,29.53,SSE,157,6.7,8.3,83,0.00,,,0.00,WUHU21623XXSP,2013-10-12 08:20:00,
2013-10-12 03:25:00,58.8,53.0,29.53,SSE,152,3.4,9.2,81,0.00,,,0.00,WUHU21623XXSP,2013-10-12 08:25:00,
2013-10-12 03:30:00,58.8,53.0,29.54,South,180,1.8,9.2,81,0.00,,,0.00,WUHU21623XXSP,2013-10-12 08:30:00,
2013-10-12 03:35:00,58.8,53.0,29.53,SE,135,0.7,6.0,81,0.00,,,0.00,WUHU21623XXSP,2013-10-12 08:35:00,
2013-10-12 03:40:00,58.8,53.0,29.53,SE,135,0.0,6.0,81,0.00,,,0.00,WUHU21623XXSP,2013-10-12 08:40:00,
2013-10-12 03:45:00,58.8,53.0,29.53,South,180,1.3,3.8,81,0.00,,,0.00,WUHU21623XXSP,2013-10-12 08:45:00,
2013-10-12 03:50:00,58.8,53.0,29.53,South,180,7.4,7.4,81,0.00,,,0.00,WUHU21623XXSP,2013-10-12 08:50:00,
2013-10-12 03:55:00,59.4,53.2,29.53,South,180,5.1,8.9,80,0.00,,,0.00,WUHU21623XXSP,2013-10-12 08:55:00,
2013-10-12 04:00:00,59.5,53.4,29.53,SSE,157,11.2,11.2,80,0.00,,,0.00,WUHU21623XXSP,2013-10-12 09:00:00,
2013-10-12 04:05:00,59.9,53.1,29.53,SSE,157,10.3,11.2,78,0.00,,,0.00,WUHU21623XXSP,2013-10-12 09:05:00,
2013-10-12 04:10:00,60.1,52.9,29.53,SSE,157,5.1,11.0,77,0.00,,,0.00,WUHU21623XXSP,2013-10-12 09:10:00,
2013-10-12 04:15:00,60.1,52.9,29.53,SSE,157,8.7,12.8,77,0.00,,,0.00,WUHU21623XXSP,2013-10-12 09:15:00,
2013-10-12 04:20:00,59.9,52.7,29.54,SSE,157,8.1,12.8,77,0.00,,,0.00,WUHU21623XXSP,2013-10-12 09:20:00,
2013-10-12 04:25:00,59.7,52.9,29.54,SSW,202,3.8,10.5,78,0.00,,,0.00,WUHU21623XXSP,2013-10-12 09:25:00,
2013-10-12 04:30:00,59.5,52.7,29.54,SE,135,6.5,8.7,78,0.00,,,0.00,WUHU21623XXSP,2013-10-12 09:30:00,
2013-10-12 04:35:00,59.2,52.3,29.55,South,180,16.1,16.1,78,0.00,,,0.00,WUHU21623XXSP,2013-10-12 09:35:00,
2013-10-12 04:40:00,58.8,51.6,29.55,SSE,157,5.1,16.1,77,0.00,,,0.00,WUHU21623XXSP,2013-10-12 09:40:00,
2013-10-12 04:45:00,58.8,51.6,29.55,SSE,157,5.6,12.8,77,0.00,,,0.00,WUHU21623XXSP,2013-10-12 09:45:00,
2013-10-12 04:50:00,58.5,51.3,29.55,SSW,202,2.9,12.8,77,0.00,,,0.00,WUHU21623XXSP,2013-10-12 09:50:00,
2013-10-12 04:55:00,57.9,51.1,29.56,South,180,7.2,12.3,78,0.00,,,0.00,WUHU21623XXSP,2013-10-12 09:55:00,
2013-10-12 05:00:00,57.6,50.4,29.56,SSE,157,10.1,13.4,77,0.00,,,0.00,WUHU21623XXSP,2013-10-12 10:00:00,
2013-10-12 05:05:00,57.4,49.8,29.56,SW,225,3.8,13.4,76,0.00,,,0.00,WUHU21623XXSP,2013-10-12 10:05:00,
2013-10-12 05:10:00,57.0,49.1,29.56,SSW,202,9.6,16.1,75,0.00,,,0.00,WUHU21623XXSP,2013-10-12 10:10:00,
2013-10-12 05:15:00,56.5,48.6,29.56,SE,135,7.4,16.1,75,0.00,,,0.00,WUHU21623XXSP,2013-10-12 10:15:00,
2013-10-12 05:20:00,56.3,48.4,29.56,ESE,112,7.4,15.2,75,0.00,,,0.00,WUHU21623XXSP,2013-10-12 10:20:00,
2013-10-12 05:25:00,55.9,47.7,29.56,SSE,157,4.9,15.2,74,0.00,,,0.00,WUHU21623XXSP,2013-10-12 10:25:00,
2013-10-12 05:30:00,55.9,48.1,29.57,SW,225,11.9,12.1,75,0.00,,,0.00,WUHU21623XXSP,2013-10-12 10:30:00,
2013-10-12 05:35:00,55.4,47.9,29.57,SSW,202,4.5,12.1,76,0.00,,,0.00,WUHU21623XXSP,2013-10-12 10:35:00,
2013-10-12 05:40:00,54.5,47.1,29.57,SW,225,6.5,16.6,76,0.00,,,0.00,WUHU21623XXSP,2013-10-12 10:40:00,
2013-10-12 05:45:00,53.8,46.4,29.57,SSW,202,9.4,16.6,76,0.00,,,0.00,WUHU21623XXSP,2013-10-12 10:45:00,
2013-10-12 05:50:00,53.2,45.9,29.58,South,180,3.4,13.0,76,0.00,,,0.00,WUHU21623XXSP,2013-10-12 10:50:00,
2013-10-12 05:55:00,52.9,45.2,29.58,South,180,8.3,21.9,75,0.00,,,0.00,WUHU21623XXSP,2013-10-12 10:55:00,
2013-10-12 06:00:00,52.7,45.0,29.59,SSE,157,4.3,21.9,75,0.00,,,0.00,WUHU21623XXSP,2013-10-12 11:00:00,
2013-10-12 06:05:00,52.5,44.5,29.59,SSE,157,6.9,17.7,74,0.00,,,0.00,WUHU21623XXSP,2013-10-12 11:05:00,
2013-10-12 06:10:00,52.3,44.7,29.59,SW,225,3.6,17.4,75,0.00,,,0.00,WUHU21623XXSP,2013-10-12 11:10:00,
2013-10-12 06:15:00,52.2,44.1,29.59,SSW,202,13.6,16.1,74,0.00,,,0.00,WUHU21623XXSP,2013-10-12 11:15:00,
2013-10-12 06:20:00,52.0,44.0,29.60,West,270,8.9,18.8,74,0.00,,,0.00,WUHU21623XXSP,2013-10-12 11:20:00,
2013-10-12 06:25:00,51.8,44.1,29.59,SSE,157,2.7,22.6,75,0.00,,,0.00,WUHU21623XXSP,2013-10-12 11:25:00,
2013-10-12 06:30:00,51.6,44.0,29.60,South,189,6.7,22.6,75,0.00,,,0.00,WUHU21623XXSP,2013-10-12 11:30:00,
2013-10-12 06:35:00,51.6,44.3,29.60,South,180,3.4,8.3,76,0.00,,,0.00,WUHU21623XXSP,2013-10-12 11:35:00,
2013-10-12 06:40:00,51.4,43.8,29.60,South,180,7.4,9.6,75,0.00,,,0.00,WUHU21623XXSP,2013-10-12 11:40:00,
2013-10-12 06:45:00,51.1,43.8,29.59,SSW,202,9.4,9.6,76,0.00,,,0.00,WUHU21623XXSP,2013-10-12 11:45:00,
2013-10-12 06:50:00,50.9,43.9,29.59,SSE,157,3.6,12.5,77,0.00,,,0.00,WUHU21623XXSP,2013-10-12 11:50:00,
2013-10-12 06:55:00,50.7,43.4,29.59,WSW,247,1.6,12.5,76,0.00,,,0.00,WUHU21623XXSP,2013-10-12 11:55:00,
2013-10-12 07:00:00,50.5,43.2,29.59,SSE,157,2.7,12.8,76,0.00,,,0.00,WUHU21623XXSP,2013-10-12 12:00:00,
2013-10-12 07:05:00,50.4,43.1,29.60,WNW,292,6.0,12.8,76,0.00,,,0.00,WUHU21623XXSP,2013-10-12 12:05:00,
2013-10-12 07:10:00,50.4,43.1,29.60,WSW,247,10.1,12.3,76,0.00,,,0.00,WUHU21623XXSP,2013-10-12 12:10:00,
2013-10-12 07:15:00,50.2,42.9,29.60,SSW,202,5.6,13.0,76,0.00,,,0.00,WUHU21623XXSP,2013-10-12 12:15:00,
2013-10-12 07:20:00,50.0,42.7,29.60,South,180,2.0,13.0,76,0.00,,,0.00,WUHU21623XXSP,2013-10-12 12:20:00,
2013-10-12 07:25:00,49.8,42.5,29.60,SSW,202,2.9,16.8,76,0.00,,,0.00,WUHU21623XXSP,2013-10-12 12:25:00,
2013-10-12 07:30:00,49.8,42.5,29.61,SW,225,6.5,16.8,76,0.00,,,0.00,WUHU21623XXSP,2013-10-12 12:30:00,
2013-10-12 07:35:00,49.8,42.5,29.61,SSE,157,4.0,13.2,76,0.00,,,0.00,WUHU21623XXSP,2013-10-12 12:35:00,
2013-10-12 07:40:00,49.6,42.3,29.62,South,180,4.9,13.2,76,0.00,,,0.00,WUHU21623XXSP,2013-10-12 12:40:00,
2013-10-12 07:45:00,49.6,42.3,29.62,South,180,6.5,13.4,76,0.00,,,0.00,WUHU21623XXSP,2013-10-12 12:45:00,
2013-10-12 07:50:00,49.5,42.2,29.62,SSW,202,3.4,13.4,76,0.00,,,0.00,WUHU21623XXSP,2013-10-12 12:50:00,
2013-10-12 07:55:00,49.3,42.0,29.62,SSW,202,7.8,11.4,76,0.00,,,0.00,WUHU21623XXSP,2013-10-12 12:55:00,
2013-10-12 08:00:00,49.3,42.0,29.62,South,180,3.1,8.1,76,0.00,,,0.00,WUHU21623XXSP,2013-10-12 13:00:00,
2013-10-12 08:05:00,49.3,42.0,29.62,SW,225,5.1,9.4,76,0.00,,,0.00,WUHU21623XXSP,2013-10-12 13:05:00,
2013-10-12 08:10:00,49.3,42.0,29.62,SSW,202,2.7,12.3,76,0.00,,,0.00,WUHU21623XXSP,2013-10-12 13:10:00,
2013-10-12 08:15:00,49.3,42.0,29.62,SSE,157,2.2,12.3,76,0.00,,,0.00,WUHU21623XXSP,2013-10-12 13:15:00,
2013-10-12 08:20:00,49.3,42.0,29.62,SSE,157,8.1,9.8,76,0.00,,,0.00,WUHU21623XXSP,2013-10-12 13:20:00,
2013-10-12 08:25:00,49.3,42.1,29.63,SSE,166,4.9,11.6,76,0.00,,,0.00,WUHU21623XXSP,2013-10-12 13:25:00,
2013-10-12 08:30:00,49.3,42.0,29.63,SE,135,4.3,11.6,76,0.00,,,0.00,WUHU21623XXSP,2013-10-12 13:30:00,
2013-10-12 08:35:00,49.3,42.0,29.63,WSW,247,1.8,8.7,76,0.00,,,0.00,WUHU21623XXSP,2013-10-12 13:35:00,
2013-10-12 08:40:00,49.3,42.0,29.63,SSW,202,6.3,8.7,76,0.00,,,0.00,WUHU21623XXSP,2013-10-12 13:40:00,
2013-10-12 08:45:00,49.3,42.0,29.63,South,180,2.2,7.6,76,0.00,,,0.00,WUHU21623XXSP,2013-10-12 13:45:00,
2013-10-12 08:50:00,49.3,42.0,29.64,SSE,157,8.7,8.9,76,0.00,,,0.00,WUHU21623XXSP,2013-10-12 13:50:00,
2013-10-12 08:55:00,49.3,42.0,29.63,SE,135,12.1,12.1,76,0.00,,,0.00,WUHU21623XXSP,2013-10-12 13:55:00,
2013-10-12 09:00:00,49.3,42.0,29.63,SSW,202,6.3,12.1,76,0.00,,,0.00,WUHU21623XXSP,2013-10-12 14:00:00,
2013-10-12 09:05:00,49.5,42.2,29.63,SSW,202,3.1,9.6,76,0.00,,,0.00,WUHU21623XXSP,2013-10-12 14:05:00,
2013-10-12 09:10:00,49.6,42.0,29.63,South,180,6.3,12.3,75,0.00,,,0.00,WUHU21623XXSP,2013-10-12 14:10:00,
2013-10-12 09:15:00,49.6,42.0,29.63,South,180,1.8,12.3,75,0.00,,,0.00,WUHU21623XXSP,2013-10-12 14:15:00,
2013-10-12 09:20:00,49.6,42.0,29.64,SSW,202,3.1,9.2,75,0.00,,,0.00,WUHU21623XXSP,2013-10-12 14:20:00,
2013-10-12 09:25:00,49.6,42.1,29.64,SSW,205,5.0,12.8,75,0.00,,,0.00,WUHU21623XXSP,2013-10-12 14:25:00,
2013-10-12 09:30:00,49.6,42.0,29.64,SW,225,5.1,12.8,75,0.00,,,0.00,WUHU21623XXSP,2013-10-12 14:30:00,
2013-10-12 09:35:00,49.6,42.0,29.64,SSW,202,4.0,11.4,75,0.00,,,0.00,WUHU21623XXSP,2013-10-12 14:35:00,
2013-10-12 09:40:00,49.6,42.0,29.64,SW,225,0.0,8.5,75,0.00,,,0.00,WUHU21623XXSP,2013-10-12 14:40:00,
2013-10-12 09:45:00,49.6,42.0,29.64,South,180,3.8,11.9,75,0.00,,,0.00,WUHU21623XXSP,2013-10-12 14:45:00,
2013-10-12 09:50:00,49.6,41.6,29.64,SSE,157,2.7,11.9,74,0.00,,,0.00,WUHU21623XXSP,2013-10-12 14:50:00,
2013-10-12 09:55:00,49.8,41.8,29.64,SSE,157,10.5,16.1,74,0.00,,,0.00,WUHU21623XXSP,2013-10-12 14:55:00,
2013-10-12 10:00:00,49.6,41.6,29.64,South,180,5.8,16.1,74,0.00,,,0.00,WUHU21623XXSP,2013-10-12 15:00:00,
2013-10-12 10:05:00,49.8,42.2,29.65,SSW,202,2.5,11.6,75,0.00,,,0.00,WUHU21623XXSP,2013-10-12 15:05:00,
2013-10-12 10:10:00,49.6,42.0,29.65,SW,225,6.0,10.3,75,0.00,,,0.00,WUHU21623XXSP,2013-10-12 15:10:00,
2013-10-12 10:15:00,49.8,42.2,29.64,South,180,4.7,9.4,75,0.00,,,0.00,WUHU21623XXSP,2013-10-12 15:15:00,
2013-10-12 10:20:00,49.8,42.2,29.65,SSE,157,5.8,8.1,75,0.00,,,0.00,WUHU21623XXSP,2013-10-12 15:20:00,
2013-10-12 10:25:00,49.8,42.2,29.65,SSW,202,6.9,10.7,75,0.00,,,0.00,WUHU21623XXSP,2013-10-12 15:25:00,
2013-10-12 10:30:00,49.8,41.8,29.65,South,180,6.5,10.7,74,0.00,,,0.00,WUHU21623XXSP,2013-10-12 15:30:00,
2013-10-12 10:36:00,49.8,42.2,29.65,SW,225,7.2,9.2,75,0.00,,,0.00,WUHU21623XXSP,2013-10-12 15:36:00,
2013-10-12 10:40:00,49.8,42.2,29.64,South,180,4.9,9.2,75,0.00,,,0.00,WUHU21623XXSP,2013-10-12 15:40:00,
2013-10-12 10:45:00,49.8,41.8,29.64,SSW,202,4.9,12.1,74,0.00,,,0.00,WUHU21623XXSP,2013-10-12 15:45:00,
2013-10-12 10:50:00,50.4,42.4,29.65,SSW,202,4.7,12.1,74,0.00,,,0.00,WUHU21623XXSP,2013-10-12 15:50:00,
2013-10-12 10:55:00,50.5,42.5,29.65,South,180,5.4,8.1,74,0.00,,,0.00,WUHU21623XXSP,2013-10-12 15:55:00,
2013-10-12 11:00:00,50.7,42.4,29.65,SSW,202,8.9,12.3,73,0.00,,,0.00,WUHU21623XXSP,2013-10-12 16:00:00,
2013-10-12 11:06:00,51.1,42.4,29.65,South,180,1.8,12.3,72,0.00,,,0.00,WUHU21623XXSP,2013-10-12 16:06:00,
2013-10-12 11:11:00,51.3,42.6,29.65,SE,135,3.8,10.3,72,0.00,,,0.00,WUHU21623XXSP,2013-10-12 16:11:00,
2013-10-12 11:16:00,51.6,42.9,29.65,SSW,202,1.3,9.2,72,0.00,,,0.00,WUHU21623XXSP,2013-10-12 16:16:00,
2013-10-12 11:21:00,52.0,42.9,29.65,SSW,202,4.5,9.2,71,0.00,,,0.00,WUHU21623XXSP,2013-10-12 16:21:00,
2013-10-12 11:26:00,51.8,42.4,29.65,SW,225,4.5,8.5,70,0.00,,,0.00,WUHU21623XXSP,2013-10-12 16:26:00,
2013-10-12 11:31:00,51.8,42.4,29.65,South,190,4.0,8.3,70,0.00,,,0.00,WUHU21623XXSP,2013-10-12 16:31:00,
2013-10-12 11:36:00,52.0,42.6,29.65,South,180,1.6,8.3,70,0.00,,,0.00,WUHU21623XXSP,2013-10-12 16:36:00,
2013-10-12 11:41:00,52.3,42.9,29.65,South,180,6.7,11.6,70,0.00,,,0.00,WUHU21623XXSP,2013-10-12 16:41:00,
2013-10-12 11:46:00,52.7,42.8,29.65,South,180,0.4,11.6,69,0.00,,,0.00,WUHU21623XXSP,2013-10-12 16:46:00,
2013-10-12 11:51:00,53.2,42.9,29.65,SSW,202,10.1,13.2,68,0.00,,,0.00,WUHU21623XXSP,2013-10-12 16:51:00,
2013-10-12 11:56:00,53.2,42.5,29.65,South,180,6.7,13.2,67,0.00,,,0.00,WUHU21623XXSP,2013-10-12 16:56:00,
2013-10-12 12:01:00,52.9,42.6,29.65,SE,135,6.0,12.5,68,0.00,,,0.00,WUHU21623XXSP,2013-10-12 17:01:00,
2013-10-12 12:06:00,52.5,42.3,29.66,SSE,157,8.1,12.5,68,0.00,,,0.00,WUHU21623XXSP,2013-10-12 17:06:00,
2013-10-12 12:11:00,52.2,41.9,29.66,SSE,157,3.4,13.0,68,0.00,,,0.00,WUHU21623XXSP,2013-10-12 17:11:00,
2013-10-12 12:16:00,52.0,42.6,29.66,SSW,202,4.9,13.0,69,0.00,,,0.00,WUHU21623XXSP,2013-10-12 17:16:00,
2013-10-12 12:21:00,52.0,42.6,29.66,WSW,247,5.4,10.3,70,0.00,,,0.00,WUHU21623XXSP,2013-10-12 17:21:00,
2013-10-12 12:26:00,52.0,42.6,29.66,SSW,202,3.1,16.8,70,0.00,,,0.00,WUHU21623XXSP,2013-10-12 17:26:00,
2013-10-12 12:31:00,51.8,42.4,29.67,South,180,4.9,16.8,70,0.00,,,0.00,WUHU21623XXSP,2013-10-12 17:31:00,
2013-10-12 12:36:00,51.6,42.6,29.67,East,90,5.1,11.2,71,0.00,,,0.00,WUHU21623XXSP,2013-10-12 17:36:00,
2013-10-12 12:41:00,51.6,42.6,29.67,SSE,157,7.2,11.2,71,0.00,,,0.00,WUHU21623XXSP,2013-10-12 17:41:00,
2013-10-12 12:46:00,51.4,42.4,29.67,SSE,157,5.8,18.8,71,0.00,,,0.00,WUHU21623XXSP,2013-10-12 17:46:00,
2013-10-12 12:51:00,51.4,42.4,29.67,South,180,1.6,18.8,71,0.00,,,0.00,WUHU21623XXSP,2013-10-12 17:51:00,
2013-10-12 12:56:00,51.6,43.3,29.67,SSE,157,7.4,11.2,72,0.00,,,0.00,WUHU21623XXSP,2013-10-12 17:56:00,
2013-10-12 13:01:00,51.6,42.6,29.67,SSW,202,4.0,11.2,71,0.00,,,0.00,WUHU21623XXSP,2013-10-12 18:01:00,
2013-10-12 13:06:00,51.6,42.6,29.67,SSW,202,3.1,12.8,71,0.00,,,0.00,WUHU21623XXSP,2013-10-12 18:06:00,
2013-10-12 13:11:00,51.6,42.9,29.67,SSW,202,9.2,12.8,72,0.00,,,0.00,WUHU21623XXSP,2013-10-12 18:11:00,
2013-10-12 13:16:00,51.6,42.6,29.67,WSW,247,8.7,13.2,71,0.00,,,0.00,WUHU21623XXSP,2013-10-12 18:16:00,
2013-10-12 13:21:00,52.0,42.9,29.67,SW,225,8.3,13.2,71,0.00,,,0.00,WUHU21623XXSP,2013-10-12 18:21:00,
2013-10-12 13:26:00,52.2,42.8,29.67,SSE,157,0.0,12.1,70,0.00,,,0.00,WUHU21623XXSP,2013-10-12 18:26:00,
2013-10-12 13:31:00,52.0,42.6,29.67,SSW,202,8.3,12.1,70,0.00,,,0.00,WUHU21623XXSP,2013-10-12 18:31:00,
2013-10-12 13:36:00,51.6,42.6,29.67,South,180,5.6,12.1,71,0.00,,,0.00,WUHU21623XXSP,2013-10-12 18:36:00,
2013-10-12 13:41:00,51.4,42.8,29.68,SSE,157,3.4,13.4,72,0.00,,,0.00,WUHU21623XXSP,2013-10-12 18:41:00,
2013-10-12 13:46:00,51.6,42.9,29.68,SSE,157,8.1,13.4,72,0.00,,,0.00,WUHU21623XXSP,2013-10-12 18:46:00,
2013-10-12 13:51:00,51.6,42.9,29.68,SW,225,0.9,11.2,72,0.00,,,0.00,WUHU21623XXSP,2013-10-12 18:51:00,
2013-10-12 13:56:00,51.6,43.3,29.68,South,180,3.1,10.5,73,0.00,,,0.00,WUHU21623XXSP,2013-10-12 18:56:00,
2013-10-12 14:01:00,51.6,43.3,29.68,SSW,202,2.0,11.9,73,0.00,,,0.00,WUHU21623XXSP,2013-10-12 19:01:00,
2013-10-12 14:06:00,52.0,43.3,29.68,SW,225,15.7,15.7,72,0.00,,,0.00,WUHU21623XXSP,2013-10-12 19:06:00,
2013-10-12 14:11:00,51.6,43.3,29.68,WSW,247,6.3,16.6,73,0.00,,,0.00,WUHU21623XXSP,2013-10-12 19:11:00,
2013-10-12 14:16:00,51.6,42.9,29.69,SW,225,7.2,16.6,72,0.00,,,0.00,WUHU21623XXSP,2013-10-12 19:16:00,
2013-10-12 14:21:00,51.6,43.3,29.69,SSE,157,6.0,16.6,73,0.00,,,0.00,WUHU21623XXSP,2013-10-12 19:21:00,
2013-10-12 14:26:00,51.6,43.6,29.69,South,180,4.9,11.6,74,0.00,,,0.00,WUHU21623XXSP,2013-10-12 19:26:00,
2013-10-12 14:31:00,51.4,43.4,29.69,SW,225,4.9,11.6,74,0.00,,,0.00,WUHU21623XXSP,2013-10-12 19:31:00,
2013-10-12 14:36:00,50.9,42.9,29.69,SSE,157,5.1,11.0,74,0.00,,,0.00,WUHU21623XXSP,2013-10-12 19:36:00,
2013-10-12 14:41:00,50.5,42.9,29.70,SSW,202,1.8,11.0,75,0.00,,,0.00,WUHU21623XXSP,2013-10-12 19:41:00,
2013-10-12 14:46:00,50.4,43.1,29.70,South,180,1.1,8.9,76,0.00,,,0.00,WUHU21623XXSP,2013-10-12 19:46:00,
2013-10-12 14:51:00,50.2,42.9,29.70,SSW,202,3.4,10.1,76,0.00,,,0.00,WUHU21623XXSP,2013-10-12 19:51:00,
2013-10-12 14:56:00,50.4,43.1,29.70,SSE,157,0.0,11.9,76,0.00,,,0.00,WUHU21623XXSP,2013-10-12 19:56:00,
2013-10-12 15:01:00,50.4,42.7,29.70,SSW,202,4.5,11.9,75,0.00,,,0.00,WUHU21623XXSP,2013-10-12 20:01:00,
2013-10-12 15:06:00,50.4,42.7,29.70,West,270,4.3,11.4,75,0.00,,,0.00,WUHU21623XXSP,2013-10-12 20:06:00,
2013-10-12 15:11:00,50.4,42.7,29.70,SSE,157,5.8,11.4,75,0.00,,,0.00,WUHU21623XXSP,2013-10-12 20:11:00,
2013-10-12 15:16:00,50.4,42.7,29.70,SSW,202,5.1,9.6,75,0.00,,,0.00,WUHU21623XXSP,2013-10-12 20:16:00,
2013-10-12 15:21:00,50.2,42.9,29.70,SSW,202,2.7,10.1,76,0.00,,,0.00,WUHU21623XXSP,2013-10-12 20:21:00,
2013-10-12 15:26:00,50.2,42.9,29.71,SSE,157,1.1,10.1,76,0.00,,,0.00,WUHU21623XXSP,2013-10-12 20:26:00,
2013-10-12 15:31:00,50.0,43.0,29.71,South,180,7.6,13.0,77,0.00,,,0.00,WUHU21623XXSP,2013-10-12 20:31:00,
2013-10-12 15:36:00,49.8,43.2,29.71,SSW,202,2.2,13.0,78,0.00,,,0.00,WUHU21623XXSP,2013-10-12 20:36:00,
2013-10-12 15:41:00,49.6,43.4,29.71,West,270,4.3,11.9,79,0.00,,,0.00,WUHU21623XXSP,2013-10-12 20:41:00,
2013-10-12 15:46:00,49.6,43.4,29.71,West,270,0.0,13.2,79,0.00,,,0.00,WUHU21623XXSP,2013-10-12 20:46:00,
2013-10-12 15:51:00,49.5,43.5,29.71,SW,225,2.9,13.2,80,0.00,,,0.00,WUHU21623XXSP,2013-10-12 20:51:00,
2013-10-12 15:56:00,49.6,43.4,29.71,South,180,0.0,8.9,79,0.00,,,0.00,WUHU21623XXSP,2013-10-12 20:56:00,
2013-10-12 16:01:00,49.5,43.5,29.72,South,180,5.6,8.9,80,0.00,,,0.00,WUHU21623XXSP,2013-10-12 21:01:00,
2013-10-12 16:06:00,49.3,43.3,29.72,SSW,202,5.4,7.2,80,0.00,,,0.00,WUHU21623XXSP,2013-10-12 21:06:00,
2013-10-12 16:11:00,49.3,43.3,29.72,SW,225,8.3,8.3,80,0.00,,,0.00,WUHU21623XXSP,2013-10-12 21:11:00,
2013-10-12 16:16:00,49.3,43.3,29.72,SW,225,10.5,10.5,80,0.00,,,0.00,WUHU21623XXSP,2013-10-12 21:16:00,
2013-10-12 16:21:00,49.3,43.3,29.72,SW,225,6.5,10.5,80,0.00,,,0.00,WUHU21623XXSP,2013-10-12 21:21:00,
2013-10-12 16:26:00,49.3,43.3,29.73,SW,225,3.6,8.3,80,0.00,,,0.00,WUHU21623XXSP,2013-10-12 21:26:00,
2013-10-12 16:31:00,49.3,43.3,29.73,SSE,157,1.3,8.9,80,0.00,,,0.00,WUHU21623XXSP,2013-10-12 21:31:00,
2013-10-12 16:36:00,49.3,43.3,29.73,SW,225,1.1,9.8,80,0.00,,,0.00,WUHU21623XXSP,2013-10-12 21:36:00,
2013-10-12 16:41:00,49.3,43.3,29.73,SSE,157,6.3,9.8,80,0.00,,,0.00,WUHU21623XXSP,2013-10-12 21:41:00,
2013-10-12 16:46:00,49.1,43.2,29.73,SSE,157,4.3,8.9,80,0.00,,,0.00,WUHU21623XXSP,2013-10-12 21:46:00,
2013-10-12 16:51:00,49.1,43.5,29.73,SSW,193,3.9,8.9,81,0.00,,,0.00,WUHU21623XXSP,2013-10-12 21:51:00,
2013-10-12 16:56:00,48.7,43.4,29.74,SSE,157,0.0,8.5,82,0.00,,,0.00,WUHU21623XXSP,2013-10-12 21:56:00,
2013-10-12 17:01:00,48.0,43.4,29.74,South,180,5.1,9.2,84,0.00,,,0.00,WUHU21623XXSP,2013-10-12 22:01:00,
2013-10-12 17:06:00,47.8,43.5,29.74,South,180,1.1,9.2,85,0.00,,,0.00,WUHU21623XXSP,2013-10-12 22:06:00,
2013-10-12 17:11:00,47.7,43.4,29.74,SSE,157,4.9,8.5,85,0.00,,,0.00,WUHU21623XXSP,2013-10-12 22:11:00,
2013-10-12 17:16:00,47.5,43.5,29.74,SW,225,0.0,9.2,86,0.00,,,0.00,WUHU21623XXSP,2013-10-12 22:16:00,
2013-10-12 17:21:00,47.5,43.5,29.74,West,270,0.0,9.2,86,0.00,,,0.00,WUHU21623XXSP,2013-10-12 22:21:00,
2013-10-12 17:26:00,47.3,43.3,29.75,South,180,0.0,8.7,86,0.00,,,0.00,WUHU21623XXSP,2013-10-12 22:26:00,
2013-10-12 17:31:00,47.3,43.3,29.75,South,180,3.6,8.7,86,0.00,,,0.00,WUHU21623XXSP,2013-10-12 22:31:00,
2013-10-12 17:36:00,47.1,43.5,29.75,SW,225,1.1,10.1,87,0.00,,,0.00,WUHU21623XXSP,2013-10-12 22:36:00,
2013-10-12 17:41:00,47.3,43.6,29.75,SW,225,0.0,10.1,87,0.00,,,0.00,WUHU21623XXSP,2013-10-12 22:41:00,
2013-10-12 17:46:00,47.3,43.6,29.76,SSE,157,0.0,7.4,87,0.02,,,0.02,WUHU21623XXSP,2013-10-12 22:46:00,
2013-10-12 17:51:00,47.1,43.5,29.76,SW,225,0.0,7.4,87,0.02,,,0.02,WUHU21623XXSP,2013-10-12 22:51:00,
2013-10-12 17:56:00,47.1,43.5,29.76,WSW,247,0.0,6.5,87,0.02,,,0.02,WUHU21623XXSP,2013-10-12 22:56:00,
2013-10-12 18:01:00,47.1,43.8,29.76,South,180,1.1,4.5,88,0.02,,,0.02,WUHU21623XXSP,2013-10-12 23:01:00,
2013-10-12 18:06:00,47.1,43.5,29.76,SSE,157,4.0,7.2,87,0.02,,,0.02,WUHU21623XXSP,2013-10-12 23:06:00,
2013-10-12 18:11:00,47.1,43.8,29.76,WSW,247,1.3,7.2,88,0.04,,,0.04,WUHU21623XXSP,2013-10-12 23:11:00,
2013-10-12 18:16:00,47.3,44.0,29.77,West,270,0.0,3.1,88,0.04,,,0.04,WUHU21623XXSP,2013-10-12 23:16:00,
2013-10-12 18:21:00,47.3,44.0,29.77,WNW,292,0.0,6.7,88,0.06,,,0.06,WUHU21623XXSP,2013-10-12 23:21:00,
2013-10-12 18:26:00,47.5,44.1,29.77,West,270,0.0,6.7,88,0.06,,,0.06,WUHU21623XXSP,2013-10-12 23:26:00,
2013-10-12 18:31:00,47.1,43.8,29.77,WSW,247,0.0,10.1,88,0.08,,,0.08,WUHU21623XXSP,2013-10-12 23:31:00,
2013-10-12 18:36:00,47.1,43.8,29.77,West,270,0.0,10.1,88,0.08,,,0.08,WUHU21623XXSP,2013-10-12 23:36:00,
2013-10-12 18:41:00,47.3,44.0,29.77,WSW,247,4.7,7.6,88,0.08,,,0.08,WUHU21623XXSP,2013-10-12 23:41:00,
2013-10-12 18:46:00,47.3,44.0,29.77,West,270,3.6,7.6,88,0.06,,,0.08,WUHU21623XXSP,2013-10-12 23:46:00,
2013-10-12 18:51:00,47.3,44.0,29.78,NW,315,4.3,7.6,88,0.06,,,0.08,WUHU21623XXSP,2013-10-12 23:51:00,
2013-10-12 18:56:00,47.5,44.1,29.78,NNE,22,0.0,7.6,88,0.08,,,0.10,WUHU21623XXSP,2013-10-12 23:56:00,
2013-10-12 19:01:00,47.7,44.3,29.78,WNW,292,3.1,7.6,88,0.08,,,0.10,WUHU21623XXSP,2013-10-13 00:01:00,
2013-10-12 19:06:00,47.7,44.3,29.78,WNW,292,3.6,7.8,88,0.08,,,0.10,WUHU21623XXSP,2013-10-13 00:06:00,
2013-10-12 19:11:00,47.5,44.1,29.79,WNW,292,3.8,7.8,88,0.06,,,0.10,WUHU21623XXSP,2013-10-13 00:11:00,
2013-10-12 19:16:00,47.7,44.3,29.79,West,270,2.7,11.4,88,0.06,,,0.10,WUHU21623XXSP,2013-10-13 00:16:00,
2013-10-12 19:21:00,47.5,44.1,29.79,WSW,247,9.6,11.4,88,0.04,,,0.10,WUHU21623XXSP,2013-10-13 00:21:00,
2013-10-12 19:26:00,47.3,43.6,29.80,NNW,337,7.4,11.2,87,0.04,,,0.10,WUHU21623XXSP,2013-10-13 00:26:00,
2013-10-12 19:31:00,47.1,43.5,29.80,WSW,247,5.6,11.2,87,0.02,,,0.10,WUHU21623XXSP,2013-10-13 00:31:00,
2013-10-12 19:36:00,47.1,43.5,29.80,West,270,8.1,12.1,87,0.02,,,0.10,WUHU21623XXSP,2013-10-13 00:36:00,
2013-10-12 19:41:00,46.9,43.0,29.80,West,270,3.8,12.1,86,0.02,,,0.10,WUHU21623XXSP,2013-10-13 00:41:00,
2013-10-12 19:46:00,46.9,43.3,29.80,West,270,4.5,8.7,87,0.02,,,0.10,WUHU21623XXSP,2013-10-13 00:46:00,
2013-10-12 19:51:00,46.8,42.8,29.81,WSW,247,5.8,11.0,86,0.02,,,0.10,WUHU21623XXSP,2013-10-13 00:51:00,
2013-10-12 19:56:00,46.6,42.6,29.81,West,270,4.3,11.0,86,0.00,,,0.10,WUHU21623XXSP,2013-10-13 00:56:00,
2013-10-12 20:01:00,46.6,42.6,29.81,WNW,292,4.3,10.1,86,0.00,,,0.10,WUHU21623XXSP,2013-10-13 01:01:00,
2013-10-12 20:06:00,46.6,42.6,29.81,West,270,1.1,9.2,86,0.00,,,0.10,WUHU21623XXSP,2013-10-13 01:06:00,
2013-10-12 20:11:00,46.6,42.6,29.82,West,270,5.1,12.3,86,0.00,,,0.10,WUHU21623XXSP,2013-10-13 01:11:00,
2013-10-12 20:16:00,46.6,42.6,29.82,WNW,292,10.5,13.6,86,0.00,,,0.10,WUHU21623XXSP,2013-10-13 01:16:00,
2013-10-12 20:21:00,46.6,42.6,29.82,WNW,292,8.5,13.6,86,0.00,,,0.10,WUHU21623XXSP,2013-10-13 01:21:00,
2013-10-12 20:26:00,46.6,42.6,29.83,West,270,6.3,11.6,86,0.00,,,0.10,WUHU21623XXSP,2013-10-13 01:26:00,
2013-10-12 20:31:00,46.6,42.6,29.83,NW,315,4.0,10.5,86,0.00,,,0.10,WUHU21623XXSP,2013-10-13 01:31:00,
2013-10-12 20:36:00,46.6,42.6,29.83,West,270,4.7,17.0,86,0.00,,,0.10,WUHU21623XXSP,2013-10-13 01:36:00,
2013-10-12 20:41:00,46.2,42.3,29.83,WNW,292,9.8,17.0,86,0.00,,,0.10,WUHU21623XXSP,2013-10-13 01:41:00,
2013-10-12 20:46:00,46.2,42.3,29.84,NNW,337,4.7,11.6,86,0.00,,,0.10,WUHU21623XXSP,2013-10-13 01:46:00,
2013-10-12 20:51:00,46.0,42.4,29.84,NNW,337,5.1,17.9,87,0.00,,,0.10,WUHU21623XXSP,2013-10-13 01:51:00,
2013-10-12 20:56:00,46.0,42.4,29.84,WNW,292,4.9,17.9,87,0.00,,,0.10,WUHU21623XXSP,2013-10-13 01:56:00,
2013-10-12 20:57:00,46.0,42.4,29.84,West,270,9.2,17.9,87,0.00,,,0.10,WUHU21623XXSP,2013-10-13 01:57:00,
2013-10-12 21:03:00,46.0,42.1,29.85,NW,315,2.2,11.0,86,0.00,,,0.10,WUHU21623XXSP,2013-10-13 02:03:00,
2013-10-12 21:08:00,46.0,42.1,29.85,NW,315,4.7,15.0,86,0.00,,,0.10,WUHU21623XXSP,2013-10-13 02:08:00,
2013-10-12 21:13:00,45.7,41.8,29.86,WNW,292,7.6,15.0,86,0.00,,,0.10,WUHU21623XXSP,2013-10-13 02:13:00,
2013-10-12 21:18:00,45.7,42.1,29.86,West,270,4.9,13.0,87,0.00,,,0.10,WUHU21623XXSP,2013-10-13 02:18:00,
2013-10-12 21:23:00,45.7,42.1,29.86,West,270,2.7,13.0,87,0.00,,,0.10,WUHU21623XXSP,2013-10-13 02:23:00,
2013-10-12 21:28:00,45.7,42.1,29.86,West,270,4.9,11.4,87,0.00,,,0.10,WUHU21623XXSP,2013-10-13 02:28:00,
2013-10-12 21:33:00,45.7,42.1,29.87,WNW,292,5.4,11.2,87,0.00,,,0.10,WUHU21623XXSP,2013-10-13 02:33:00,
2013-10-12 21:38:00,45.7,42.1,29.87,West,270,6.5,11.2,87,0.00,,,0.10,WUHU21623XXSP,2013-10-13 02:38:00,
2013-10-12 21:43:00,45.5,41.9,29.87,NW,315,2.2,15.9,87,0.00,,,0.10,WUHU21623XXSP,2013-10-13 02:43:00,
2013-10-12 21:48:00,45.3,41.7,29.88,WNW,292,2.7,15.9,87,0.00,,,0.10,WUHU21623XXSP,2013-10-13 02:48:00,
2013-10-12 21:53:00,45.3,41.7,29.88,WNW,292,3.1,12.8,87,0.00,,,0.10,WUHU21623XXSP,2013-10-13 02:53:00,
2013-10-12 21:58:00,45.3,41.7,29.88,NNW,337,15.0,15.0,87,0.00,,,0.10,WUHU21623XXSP,2013-10-13 02:58:00,
2013-10-12 22:03:00,45.1,41.5,29.89,West,270,4.5,15.9,87,0.00,,,0.10,WUHU21623XXSP,2013-10-13 03:03:00,
2013-10-12 22:08:00,45.1,41.5,29.89,NNW,337,13.0,15.9,87,0.00,,,0.10,WUHU21623XXSP,2013-10-13 03:08:00,
2013-10-12 22:13:00,45.1,41.5,29.89,NW,315,6.0,15.7,87,0.00,,,0.10,WUHU21623XXSP,2013-10-13 03:13:00,
2013-10-12 22:18:00,45.0,41.3,29.89,NW,315,5.1,10.7,87,0.00,,,0.10,WUHU21623XXSP,2013-10-13 03:18:00,
2013-10-12 22:23:00,45.0,41.3,29.89,West,270,0.0,10.7,87,0.00,,,0.10,WUHU21623XXSP,2013-10-13 03:23:00,
2013-10-12 22:28:00,45.0,41.6,29.89,WNW,292,3.1,9.8,88,0.00,,,0.10,WUHU21623XXSP,2013-10-13 03:28:00,
2013-10-12 22:33:00,45.0,41.6,29.89,West,270,3.8,11.6,88,0.00,,,0.10,WUHU21623XXSP,2013-10-13 03:33:00,
2013-10-12 22:38:00,44.8,41.5,29.90,West,270,2.9,11.6,88,0.00,,,0.10,WUHU21623XXSP,2013-10-13 03:38:00,
2013-10-12 22:43:00,44.8,41.5,29.90,West,270,1.6,8.7,88,0.00,,,0.10,WUHU21623XXSP,2013-10-13 03:43:00,
2013-10-12 22:48:00,44.8,41.5,29.91,West,270,2.2,7.2,88,0.02,,,0.12,WUHU21623XXSP,2013-10-13 03:48:00,
2013-10-12 22:53:00,44.8,41.5,29.91,WNW,292,3.1,8.7,88,0.02,,,0.12,WUHU21623XXSP,2013-10-13 03:53:00,
2013-10-12 22:58:00,44.8,41.5,29.91,West,270,3.6,10.5,88,0.02,,,0.12,WUHU21623XXSP,2013-10-13 03:58:00,
2013-10-12 23:01:00,44.6,41.3,29.91,NW,315,4.3,11.6,88,0.02,,,0.12,WUHU21623XXSP,2013-10-13 04:01:00,
2013-10-12 23:06:00,44.4,40.8,29.91,WSW,247,16.1,16.1,87,0.02,,,0.12,WUHU21623XXSP,2013-10-13 04:06:00,
2013-10-12 23:11:00,44.4,40.8,29.92,WNW,292,12.5,16.1,87,0.02,,,0.12,WUHU21623XXSP,2013-10-13 04:11:00,
2013-10-12 23:16:00,44.2,40.6,29.92,NW,315,10.3,13.0,87,0.02,,,0.12,WUHU21623XXSP,2013-10-13 04:16:00,
2013-10-12 23:21:00,44.1,40.4,29.92,WNW,292,7.4,11.4,87,0.02,,,0.12,WUHU21623XXSP,2013-10-13 04:21:00,
2013-10-12 23:26:00,44.1,40.4,29.93,West,270,1.6,11.9,87,0.02,,,0.12,WUHU21623XXSP,2013-10-13 04:26:00,
2013-10-12 23:31:00,43.9,40.3,29.93,WNW,292,2.9,13.2,87,0.02,,,0.12,WUHU21623XXSP,2013-10-13 04:31:00,
2013-10-12 23:36:00,43.9,40.3,29.93,WNW,292,3.6,13.6,87,0.02,,,0.12,WUHU21623XXSP,2013-10-13 04:36:00,
2013-10-12 23:41:00,43.9,40.3,29.93,WNW,292,11.0,13.6,87,0.02,,,0.12,WUHU21623XXSP,2013-10-13 04:41:00,
2013-10-12 23:46:00,43.9,40.3,29.93,WNW,295,5.8,18.8,87,0.00,,,0.12,WUHU21623XXSP,2013-10-13 04:46:00,
2013-10-12 23:51:00,43.9,40.3,29.93,North,0,1.1,18.8,87,0.00,,,0.12,WUHU21623XXSP,2013-10-13 04:51:00,
2013-10-12 23:56:00,43.7,39.8,29.93,WNW,292,4.5,12.1,86,0.00,,,0.12,WUHU21623XXSP,2013-10-13 04:56:00,